Colby, KS

3:59 PM CST on November 21, 2019 (GMT -0600)
Shaltz

Weather History for KCBK - September, 2019

Change the Weather History Date:

Monday, September 16, 2019

  Actual Average (KGLD) Record (KGLD)
Temperature  
Mean Temperature 78 °F -  
Max Temperature 89 °F 76 °F 98 °F (1955)
Min Temperature 66 °F 49 °F 34 °F (1951)
Cooling Degree Days 12    
Growing Degree Days 28 (Base 50)    
Moisture  
Dew Point 48 °F    
Average Humidity 39    
Maximum Humidity 56    
Minimum Humidity 21    
Precipitation  
Precipitation 0.00 in - - ()
Sea Level Pressure  
Sea Level Pressure 29.99 in    
Wind  
Wind Speed 15 mph (South)    
Max Wind Speed 28 mph    
Max Gust Speed 43 mph    
Visibility 10 miles    
Events      
Averages and records for this station are not official NWS values.
T = Trace of Precipitation, MM = Missing Value Source: NWS Daily Summary

Daily Weather History Graph

Daily Weather History Graph

Search for Another Location

Airport or City:

Astronomy

Sep. 16, 2019 Rise Set
Actual Time 7:26 AM CDT 7:51 PM CDT
Civil Twilight 6:59 AM CDT 8:18 PM CDT
Nautical Twilight 6:27 AM CDT 8:49 PM CDT
Astronomical Twilight 5:55 AM CDT 9:22 PM CDT
Moon 9:27 PM CDT (9/16) 9:34 AM CDT (9/16)
Length of Visible Light 13h 18m
Length of Day
12h 25m
Waning Gibbous, 94% of the Moon is Illuminated
Sep 16
Waning Gibbous
Sep 21
Last Quarter
Sep 28
New
Oct 5
First Quarter
Oct 13
Full

Hourly Weather History & Observations

Time (CDT) Temp. Dew Point Humidity Pressure Visibility Wind Dir Wind Speed Gust Speed Precip Events Conditions
12:15 AM 73.4 °F 51.8 °F 47% 30.04 in 10.0 mi South 12.7 mph - N/A   Clear
12:35 AM 73.4 °F 51.8 °F 47% 30.04 in 10.0 mi South 11.5 mph 17.3 mph N/A   Clear
12:55 AM 71.6 °F 51.8 °F 50% 30.04 in 10.0 mi South 12.7 mph - N/A   Clear
1:15 AM 71.6 °F 51.8 °F 50% 30.04 in 10.0 mi South 11.5 mph - N/A   Clear
1:35 AM 71.6 °F 51.8 °F 50% 30.04 in 10.0 mi South 13.8 mph - N/A   Clear
1:55 AM 71.6 °F 51.8 °F 50% 30.04 in 10.0 mi South 12.7 mph - N/A   Clear
2:15 AM 69.8 °F 51.8 °F 53% 30.04 in 10.0 mi South 11.5 mph - N/A   Clear
2:35 AM 69.8 °F 51.8 °F 53% 30.05 in 10.0 mi South 11.5 mph - N/A   Clear
2:55 AM 69.8 °F 51.8 °F 53% 30.05 in 10.0 mi South 10.4 mph - N/A   Clear
3:15 AM 69.8 °F 51.8 °F 53% 30.05 in 10.0 mi South 11.5 mph 16.1 mph N/A   Clear
3:55 AM 69.8 °F 50.0 °F 49% 30.04 in 10.0 mi South 12.7 mph 16.1 mph N/A   Clear
4:15 AM 69.8 °F 50.0 °F 49% 30.04 in 10.0 mi South 11.5 mph 17.3 mph N/A   Clear
4:35 AM 69.8 °F 50.0 °F 49% 30.04 in 10.0 mi South 10.4 mph 20.7 mph N/A   Clear
4:55 AM 68.0 °F 50.0 °F 52% 30.04 in 10.0 mi South 10.4 mph - N/A   Clear
5:15 AM 68.0 °F 50.0 °F 52% 30.04 in 10.0 mi South 12.7 mph 19.6 mph N/A   Clear
5:35 AM 68.0 °F 50.0 °F 52% 30.03 in 10.0 mi South 10.4 mph - N/A   Clear
5:55 AM 68.0 °F 50.0 °F 52% 30.03 in 10.0 mi South 11.5 mph - N/A   Clear
6:15 AM 68.0 °F 50.0 °F 52% 30.03 in 10.0 mi South 9.2 mph 16.1 mph N/A   Clear
6:35 AM 68.0 °F 50.0 °F 52% 30.03 in 10.0 mi South 10.4 mph - N/A   Clear
6:55 AM 66.2 °F 50.0 °F 56% 30.03 in 10.0 mi South 10.4 mph - N/A   Clear
7:15 AM 68.0 °F 50.0 °F 52% 30.04 in 10.0 mi South 11.5 mph 17.3 mph N/A   Clear
7:35 AM 68.0 °F 50.0 °F 52% 30.04 in 10.0 mi South 11.5 mph - N/A   Clear
7:55 AM 68.0 °F 50.0 °F 52% 30.04 in 10.0 mi South 10.4 mph - N/A   Clear
8:15 AM 68.0 °F 50.0 °F 52% 30.04 in 10.0 mi South 12.7 mph 18.4 mph N/A   Clear
8:35 AM 68.0 °F 50.0 °F 52% 30.04 in 10.0 mi South 13.8 mph - N/A   Clear
8:55 AM 69.8 °F 50.0 °F 49% 30.04 in 10.0 mi South 13.8 mph 20.7 mph N/A   Clear
9:15 AM 71.6 °F 50.0 °F 46% 30.04 in 10.0 mi South 12.7 mph 24.2 mph N/A   Clear
9:35 AM 71.6 °F 50.0 °F 46% 30.03 in 10.0 mi South 16.1 mph 26.5 mph N/A   Clear
9:55 AM 71.6 °F 50.0 °F 46% 30.04 in 10.0 mi South 15.0 mph 21.9 mph N/A   Clear
10:15 AM 73.4 °F 50.0 °F 44% 30.03 in 10.0 mi South 15.0 mph 24.2 mph N/A   Clear
10:35 AM 75.2 °F 50.0 °F 41% 30.03 in 10.0 mi South 16.1 mph 25.3 mph N/A   Clear
10:55 AM 77.0 °F 50.0 °F 39% 30.03 in 10.0 mi South 20.7 mph 27.6 mph N/A   Clear
11:15 AM 77.0 °F 50.0 °F 39% 30.03 in 10.0 mi South 16.1 mph 25.3 mph N/A   Clear
11:35 AM 80.6 °F 50.0 °F 34% 30.02 in 10.0 mi South 19.6 mph 29.9 mph N/A   Clear
11:55 AM 80.6 °F 48.2 °F 32% 30.02 in 10.0 mi South 19.6 mph 31.1 mph N/A   Clear
12:15 PM 80.6 °F 48.2 °F 32% 30.01 in 10.0 mi South 17.3 mph 25.3 mph N/A   Clear
12:35 PM 86.0 °F 50.0 °F 29% 30.00 in 10.0 mi South 19.6 mph 26.5 mph N/A   Clear
12:55 PM 87.8 °F 48.2 °F 25% 29.98 in 10.0 mi South 23.0 mph 31.1 mph N/A   Clear
1:15 PM 87.8 °F 46.4 °F 24% 29.98 in 10.0 mi South 25.3 mph 36.8 mph N/A   Clear
1:35 PM 87.8 °F 44.6 °F 22% 29.97 in 10.0 mi South 24.2 mph 36.8 mph N/A   Clear
1:55 PM 87.8 °F 44.6 °F 22% 29.96 in 10.0 mi South 26.5 mph 36.8 mph N/A   Clear
2:15 PM 89.6 °F 44.6 °F 21% 29.96 in 10.0 mi South 27.6 mph 35.7 mph N/A   Clear
2:35 PM 89.6 °F 44.6 °F 21% 29.95 in 10.0 mi South 26.5 mph 39.1 mph N/A   Clear
2:55 PM 89.6 °F 44.6 °F 21% 29.95 in 10.0 mi South 21.9 mph 42.6 mph N/A   Clear
3:15 PM 89.6 °F 44.6 °F 21% 29.94 in 10.0 mi South 23.0 mph 35.7 mph N/A   Clear
3:35 PM 89.6 °F 44.6 °F 21% 29.94 in 10.0 mi South 26.5 mph 38.0 mph N/A   Clear
3:55 PM 87.8 °F 44.6 °F 22% 29.93 in 10.0 mi SSW 24.2 mph 33.4 mph N/A   Clear
4:15 PM 89.6 °F 44.6 °F 21% 29.93 in 10.0 mi South 25.3 mph 34.5 mph N/A   Clear
4:55 PM 87.8 °F 44.6 °F 22% 29.93 in 10.0 mi South 25.3 mph 35.7 mph N/A   Clear
5:15 PM 89.6 °F 44.6 °F 21% 29.92 in 10.0 mi South 25.3 mph 36.8 mph N/A   Clear
5:35 PM 87.8 °F 44.6 °F 22% 29.92 in 10.0 mi South 19.6 mph 27.6 mph N/A   Clear
5:55 PM 86.0 °F 46.4 °F 25% 29.92 in 10.0 mi South 18.4 mph 26.5 mph N/A   Clear
6:15 PM 86.0 °F 44.6 °F 23% 29.91 in 10.0 mi South 18.4 mph 27.6 mph N/A   Clear
6:35 PM 86.0 °F 44.6 °F 23% 29.91 in 10.0 mi South 17.3 mph 26.5 mph N/A   Clear
6:55 PM 82.4 °F 46.4 °F 28% 29.91 in 10.0 mi South 17.3 mph 20.7 mph N/A   Clear
7:15 PM 84.2 °F 44.6 °F 25% 29.91 in 10.0 mi South 16.1 mph 24.2 mph N/A   Clear
7:35 PM 82.4 °F 46.4 °F 28% 29.91 in 10.0 mi South 13.8 mph - N/A   Clear
7:55 PM 80.6 °F 46.4 °F 30% 29.91 in 10.0 mi South 15.0 mph 19.6 mph N/A   Clear
8:35 PM 80.6 °F 46.4 °F 30% 29.91 in 10.0 mi South 16.1 mph 20.7 mph N/A   Clear
8:55 PM 78.8 °F 46.4 °F 32% 29.92 in 10.0 mi South 15.0 mph - N/A   Clear
9:15 PM 78.8 °F 46.4 °F 32% 29.93 in 10.0 mi South 12.7 mph - N/A   Clear
9:35 PM 77.0 °F 46.4 °F 34% 29.93 in 10.0 mi South 11.5 mph 17.3 mph N/A   Clear
9:55 PM 75.2 °F 46.4 °F 36% 29.93 in 10.0 mi South 15.0 mph 19.6 mph N/A   Clear
10:35 PM 73.4 °F 48.2 °F 41% 29.95 in 10.0 mi South 15.0 mph 20.7 mph N/A   Clear
10:55 PM 73.4 °F 50.0 °F 44% 29.95 in 10.0 mi South 19.6 mph 25.3 mph N/A   Clear
11:15 PM 73.4 °F 50.0 °F 44% 29.95 in 10.0 mi South 18.4 mph 25.3 mph N/A   Clear
11:35 PM 73.4 °F 50.0 °F 44% 29.95 in 10.0 mi South 17.3 mph 28.8 mph N/A   Clear
11:55 PM 73.4 °F 51.8 °F 47% 29.96 in 10.0 mi South 18.4 mph 24.2 mph N/A   Clear